User: anonymous   Login
Location: Suzhou
(31.3110°N, 120.6180°E)
Time: 17:15:21
(UTC+08:00)
Language:

DOVE 4 - Orbit

View from above orbital plane
View from above orbital plane
View from above satellite
View from above satellite

Ground track
Ground track

The orbit data is extracted from the following two-line orbital elements,

1 39430U 13066Q   24146.83890972  .00003513  00000-0  58905-3 0  9990
2 39430  97.7348  22.5726 0139388 324.4905  34.7081 14.64090044559770
Epoch (UTC): 25 May 2024 20:08:01
Eccentricity: 0.0139388
inclination: 97.7348°
perigee height: 581 km
apogee height: 778 km
right ascension of ascending node: 22.5726°
argument of perigee: 324.4905°
revolutions per day: 14.64090044
mean anomaly at epoch: 34.7081°
orbit number at epoch: 55977

The dashed part of the orbit path shows where the satellite is in the earth's shadow,  

DLR